Temp
4 4 4 4 3 3 3 3 3 4 6 7 7 7 7 8 7 7 7 11 11 10 10 11 11 11 11 12 13 13 10 10 12 13 14 16 17 19 19 19 20 21 21 22 21
3 4 4 4 4 3 4 3 3 3 4 7 8 7 7 7 7 6 11 11 11 10 10 11 11 11 11 12 13 11 9 10 12 13 15 16 16 16 17 17 19 20 21 20 19
4 4 4 4 3 3 3 3 3 3 3 5 6 7 7 6 6 9 12 11 11 10 10 10 11 11 11 12 12 11 10 12 13 15 15 15 15 17 16 16 17 17 18 18 18
3 3 3 3 4 3 3 3 3 3 2 3 5 6 7 6 7 10 10 12 11 9 10 10 10 11 10 10 12 11 12 13 14 15 15 15 16 15 17 17 18 17 17 17 17
3 2 3 3 3 3 3 3 3 2 3 3 4 6 6 5 8 10 9 11 9 9 10 9 10 10 10 10 11 11 12 13 14 15 14 15 14 14 15 17 17 18 18 18 18
2 2 2 2 2 2 3 3 2 2 2 2 3 5 5 6 10 10 10 10 9 10 10 10 10 11 11 11 10 12 13 13 14 14 14 13 13 15 15 17 17 17 17 18 18
1 2 2 2 2 2 2 3 2 2 2 3 3 5 5 7 9 10 10 10 10 9 9 10 11 11 12 12 12 13 12 12 12 13 13 14 12 10 15 16 16 17 16 17 18
1 2 1 2 2 2 2 2 2 3 2 3 3 4 5 7 8 9 9 9 9 10 10 10 10 11 12 12 12 11 11 10 12 12 13 14 12 13 15 16 15 16 17 18 18
1 2 1 2 2 2 2 2 2 3 3 3 3 4 6 7 7 9 9 9 9 9 9 10 10 11 11 10 9 10 8 10 11 12 12 11 11 13 15 15 15 16 16 17 17
1 1 1 1 1 2 2 2 3 3 3 3 3 4 5 6 8 9 9 9 9 9 9 9 9 8 9 9 9 9 9 9 10 12 11 10 9 11 13 13 12 14 15 15 16
1 1 1 2 2 2 2 1 3 3 2 3 4 5 6 7 7 9 9 9 9 9 9 9 9 10 10 10 10 10 10 10 10 12 11 10 9 10 12 12 11 13 14 15 16
1 0 1 2 2 2 2 1 1 2 2 4 3 6 6 7 7 8 9 9 9 9 8 9 9 10 10 10 10 11 10 10 10 11 11 9 8 10 11 12 13 13 14 15 16
1 0 1 2 2 2 2 2 2 1 2 5 3 5 6 8 8 8 8 9 9 8 9 9 10 10 10 9 9 10 9 9 9 9 9 7 9 10 11 11 12 13 14 14 14
1 2 2 2 2 2 1 1 1 2 -1 4 3 5 6 8 8 8 9 10 9 8 9 10 10 10 10 10 10 9 10 10 9 8 7 8 7 7 9 8 9 12 14 15 15
2 2 2 2 1 2 1 2 1 1 -3 5 5 5 7 8 8 8 9 10 8 9 9 8 9 9 10 11 11 9 9 8 8 6 6 6 5 7 8 11 12 12 13 14 15
3 2 1 2 1 1 1 2 1 -1 2 5 5 5 6 8 8 8 9 10 10 10 9 9 10 10 9 8 10 9 7 5 4 4 3 6 6 7 9 12 9 11 13 14 15
2 3 2 2 1 1 1 1 -1 -1 3 5 5 7 7 8 8 8 8 8 8 7 6 8 8 9 9 8 8 7 6 3 3 2 5 5 5 7 8 9 9 9 11 12 13
2 3 1 1 2 1 2 0 1 3 4 6 7 7 7 8 8 8 7 7 7 7 6 6 6 8 9 8 7 7 6 4 7 4 5 5 6 8 9 9 10 11 11 12 12
2 3 1 1 2 2 2 2 2 3 3 6 7 6 6 6 7 7 8 7 7 7 6 5 6 8 8 8 8 7 3 6 3 2 1 5 6 8 9 8 9 10 12 12 12
3 2 2 2 2 2 1 3 3 1 3 7 6 6 6 6 7 6 7 8 8 8 8 7 5 8 8 9 8 7 6 4 -0 3 4 5 5 7 10 10 9 8 10 10 10
3 3 3 2 2 2 2 3 2 3 6 7 5 6 6 6 7 7 7 8 8 7 8 7 6 7 8 7 6 6 5 4 3 3 4 4 7 6 9 10 8 8 11 10 10
3 -1 3 3 1 1 4 3 2 4 6 6 7 7 6 6 7 7 7 7 8 8 7 8 4 6 7 6 7 7 6 4 2 3 3 4 5 8 7 9 9 10 11 10 9
3 3 4 4 3 3 3 4 4 6 6 7 7 8 7 7 7 7 6 8 8 8 7 7 3 2 4 6 5 6 6 5 3 2 -1 2 6 8 7 9 10 10 10 8 8
3 -0 4 4 3 3 3 5 5 6 6 8 7 8 7 7 7 6 7 7 8 9 9 8 4 4 3 4 3 3 5 4 4 1 3 3 5 9 8 9 9 10 7 6 6
3 2 2 1 4 5 5 6 6 6 8 8 8 8 8 7 7 6 6 7 8 8 7 6 3 3 4 5 3 4 6 4 3 5 3 7 6 8 9 10 10 8 5 5 5
2 2 2 2 4 3 4 5 6 6 7 7 6 7 7 7 7 6 6 6 8 7 6 5 2 2 2 5 4 4 4 5 4 5 5 6 6 9 10 9 9 5 4 4 3
2 2 2 3 3 4 5 7 7 7 7 7 7 6 6 6 6 8 8 8 7 5 5 5 2 1 2 5 5 5 5 5 6 5 7 6 8 9 9 9 7 4 3 2 2
Height
1498 1495 1492 1490 1487 1484 1482 1479 1477 1475 1475 1475 1472 1475 1475 1475 1474 1474 1471 1473 1476 1479 1482 1487 1491 1494 1498 1499 1500 1501 1510 1514 1507 1508 1502 1498 1499 1499 1498 1496 1494 1493 1492 1491 1492
1493 1490 1486 1485 1482 1480 1477 1476 1473 1472 1469 1470 1471 1469 1471 1471 1471 1466 1467 1470 1474 1478 1481 1482 1486 1491 1495 1497 1498 1498 1506 1504 1499 1497 1498 1498 1498 1499 1499 1496 1494 1492 1491 1490 1492
1488 1485 1482 1479 1477 1475 1473 1471 1470 1467 1465 1465 1466 1466 1467 1469 1469 1457 1461 1464 1469 1475 1479 1482 1485 1489 1492 1494 1494 1494 1498 1495 1495 1494 1496 1497 1497 1498 1498 1497 1494 1494 1493 1492 1494
1483 1480 1476 1474 1472 1469 1468 1467 1465 1464 1462 1460 1461 1462 1460 1465 1465 1454 1455 1457 1464 1471 1475 1479 1482 1486 1489 1490 1491 1494 1491 1492 1493 1494 1496 1497 1497 1496 1496 1495 1495 1495 1494 1495 1495
1478 1475 1471 1468 1466 1464 1462 1461 1460 1459 1458 1457 1458 1459 1457 1459 1454 1454 1455 1455 1462 1467 1470 1475 1479 1482 1485 1487 1489 1491 1491 1491 1492 1494 1495 1495 1495 1494 1491 1491 1494 1493 1493 1493 1493
1473 1469 1466 1463 1460 1458 1457 1456 1455 1454 1453 1452 1452 1455 1453 1454 1451 1454 1455 1456 1459 1463 1468 1473 1476 1481 1484 1484 1487 1487 1489 1491 1492 1491 1492 1492 1491 1492 1488 1489 1488 1488 1491 1491 1492
1469 1465 1462 1459 1456 1454 1453 1451 1450 1449 1448 1447 1448 1449 1448 1446 1449 1451 1453 1453 1457 1460 1465 1472 1476 1481 1482 1484 1484 1486 1490 1489 1488 1489 1491 1490 1485 1484 1487 1487 1485 1483 1486 1488 1489
1466 1462 1459 1455 1453 1451 1449 1447 1445 1445 1443 1444 1444 1444 1442 1444 1447 1450 1451 1453 1458 1462 1467 1471 1475 1479 1483 1482 1483 1487 1490 1496 1486 1487 1488 1491 1480 1481 1482 1480 1480 1480 1478 1480 1481
1463 1459 1455 1452 1451 1448 1446 1443 1441 1440 1440 1441 1442 1442 1440 1441 1443 1449 1450 1453 1457 1462 1466 1471 1475 1478 1480 1483 1489 1488 1498 1495 1491 1485 1487 1489 1484 1476 1476 1476 1476 1475 1473 1473 1474
1460 1456 1452 1449 1447 1445 1443 1440 1437 1435 1437 1439 1440 1442 1438 1438 1441 1447 1451 1454 1458 1461 1465 1469 1474 1476 1479 1483 1489 1493 1492 1493 1492 1486 1486 1488 1487 1476 1475 1475 1474 1473 1470 1467 1466
1456 1453 1449 1446 1445 1443 1441 1438 1439 1437 1435 1433 1433 1432 1431 1437 1442 1446 1449 1453 1458 1462 1463 1465 1471 1470 1474 1477 1480 1484 1488 1488 1487 1484 1485 1485 1484 1476 1471 1472 1470 1468 1465 1462 1460
1452 1449 1446 1443 1441 1440 1439 1438 1437 1438 1435 1431 1432 1433 1433 1437 1440 1445 1450 1454 1457 1459 1463 1468 1466 1469 1473 1477 1480 1483 1487 1489 1486 1484 1485 1484 1480 1471 1465 1463 1461 1460 1458 1456 1454
1449 1444 1442 1440 1438 1435 1435 1435 1435 1436 1435 1431 1432 1431 1433 1437 1439 1443 1450 1452 1456 1460 1461 1463 1466 1470 1475 1478 1482 1484 1488 1489 1491 1487 1488 1487 1474 1465 1456 1454 1454 1452 1451 1450 1448
1444 1440 1438 1437 1436 1432 1431 1432 1434 1435 1442 1432 1434 1429 1431 1433 1441 1445 1450 1453 1456 1460 1460 1464 1466 1469 1471 1476 1479 1484 1481 1486 1490 1492 1499 1492 1495 1474 1460 1455 1451 1447 1447 1446 1445
1436 1432 1433 1433 1431 1429 1431 1430 1433 1435 1470 1431 1432 1429 1431 1433 1438 1446 1449 1452 1455 1458 1462 1470 1467 1470 1473 1473 1474 1482 1484 1487 1492 1499 1500 1497 1506 1475 1463 1453 1447 1446 1447 1447 1445
1426 1425 1426 1428 1426 1430 1430 1432 1435 1446 1436 1427 1427 1426 1433 1435 1438 1446 1449 1450 1454 1459 1465 1469 1467 1469 1472 1476 1476 1481 1487 1495 1501 1505 1518 1498 1500 1479 1462 1454 1454 1448 1447 1446 1443
1430 1425 1423 1427 1429 1430 1433 1435 1445 1453 1433 1426 1423 1425 1433 1436 1441 1445 1447 1453 1458 1467 1473 1469 1473 1472 1473 1479 1482 1485 1494 1519 1522 1529 1510 1500 1502 1473 1458 1456 1456 1453 1451 1448 1446
1435 1430 1429 1428 1429 1432 1435 1438 1441 1427 1426 1421 1421 1430 1434 1437 1444 1448 1453 1458 1460 1462 1474 1480 1483 1474 1475 1479 1484 1487 1492 1510 1499 1518 1510 1499 1495 1467 1456 1455 1456 1455 1454 1451 1449
1444 1438 1434 1434 1435 1437 1437 1439 1436 1432 1430 1422 1427 1434 1441 1444 1445 1452 1456 1460 1461 1461 1470 1482 1480 1474 1475 1477 1480 1491 1506 1497 1510 1520 1529 1496 1484 1463 1454 1455 1453 1452 1451 1451 1450
1446 1442 1440 1439 1439 1440 1441 1438 1437 1437 1432 1427 1432 1439 1444 1449 1450 1456 1457 1460 1461 1462 1462 1470 1483 1475 1478 1478 1482 1484 1491 1507 1524 1524 1514 1497 1493 1473 1458 1457 1456 1455 1452 1449 1446
1447 1443 1443 1442 1440 1440 1441 1436 1434 1429 1429 1430 1437 1440 1445 1448 1450 1455 1459 1459 1459 1463 1463 1467 1476 1483 1479 1482 1486 1490 1495 1500 1504 1509 1511 1512 1479 1462 1457 1455 1456 1453 1449 1446 1443
1448 1447 1443 1441 1443 1442 1439 1440 1439 1436 1432 1433 1435 1438 1444 1448 1452 1455 1458 1458 1459 1461 1467 1468 1481 1483 1480 1483 1483 1483 1487 1494 1513 1514 1512 1509 1488 1456 1456 1455 1453 1448 1445 1441 1437
1452 1449 1445 1442 1445 1443 1444 1441 1440 1436 1435 1435 1438 1439 1442 1448 1455 1456 1458 1457 1459 1462 1466 1468 1486 1504 1495 1488 1485 1483 1485 1489 1498 1505 1525 1517 1480 1454 1453 1451 1448 1445 1441 1438 1435
1454 1455 1449 1446 1445 1446 1446 1441 1440 1436 1436 1435 1438 1439 1443 1448 1451 1457 1458 1459 1458 1461 1464 1466 1481 1486 1495 1489 1487 1492 1484 1488 1492 1512 1502 1491 1474 1455 1455 1451 1445 1443 1441 1437 1433
1457 1458 1457 1455 1446 1446 1445 1440 1439 1440 1436 1436 1440 1440 1443 1451 1452 1457 1459 1460 1461 1463 1466 1469 1486 1487 1483 1480 1485 1482 1479 1485 1491 1485 1497 1470 1472 1459 1454 1448 1446 1442 1439 1435 1431
1458 1459 1457 1454 1450 1448 1445 1444 1442 1441 1441 1442 1444 1445 1445 1449 1451 1456 1457 1460 1460 1465 1468 1472 1489 1488 1487 1476 1478 1481 1479 1479 1481 1480 1479 1473 1467 1452 1448 1445 1442 1441 1438 1434 1430
1458 1459 1459 1455 1452 1449 1448 1445 1445 1443 1446 1446 1448 1448 1451 1453 1451 1451 1454 1457 1458 1463 1470 1474 1484 1491 1493 1479 1477 1478 1465 1468 1469 1469 1465 1471 1453 1446 1443 1442 1439 1438 1436 1432 1428
Wind_Speed
23 23 23 23 22 23 21 19 18 20 20 16 8 17 15 14 16 19 26 21 24 12 16 22 21 16 13 9 10 8 3 4 5 7 4 2 3 3 8 12 10 5 9 4 20
28 25 23 21 22 19 23 21 17 19 20 22 10 8 17 14 17 25 27 21 15 19 19 22 24 20 10 10 9 6 4 8 6 5 1 4 3 7 6 12 5 5 7 7 27
29 29 27 28 25 21 21 19 21 17 22 26 22 13 19 13 12 26 19 24 22 26 20 18 16 18 11 9 8 6 5 5 5 9 4 3 7 1 4 6 3 4 3 20 25
26 26 26 25 23 26 23 21 18 20 20 18 26 23 18 13 7 1 7 20 24 29 24 16 14 12 6 6 9 3 8 6 10 20 8 1 8 4 9 15 4 7 2 10 20
27 25 25 24 22 23 20 20 18 17 19 18 18 12 14 13 18 4 3 14 24 32 30 21 19 9 6 9 4 3 2 8 14 14 10 10 9 9 11 19 17 17 14 8 10
25 24 24 23 21 22 20 20 18 17 17 20 15 17 15 8 12 13 4 15 28 30 29 26 15 15 8 4 9 4 11 12 11 11 7 6 8 15 2 6 21 22 20 19 16
24 22 21 20 19 19 19 18 17 17 17 15 19 11 16 21 6 14 9 17 28 28 29 26 12 18 5 3 8 6 3 1 6 5 5 2 11 7 20 24 29 34 31 28 28
24 21 20 19 19 17 17 19 19 15 14 11 16 12 7 20 8 13 10 15 24 21 24 24 16 16 5 4 4 6 4 3 3 6 6 8 20 6 9 25 29 32 37 36 34
22 20 20 19 18 18 16 17 16 12 13 11 13 12 3 11 24 19 15 16 15 19 18 17 20 6 5 5 3 0 4 4 5 5 3 8 3 5 18 27 24 29 32 35 32
21 22 21 20 16 17 19 20 19 11 9 8 13 5 9 11 27 24 18 15 11 16 11 11 10 4 4 4 6 5 4 3 4 2 3 7 8 14 22 14 15 23 30 33 33
20 21 20 16 15 16 20 22 5 1 6 9 7 5 2 14 18 25 18 17 12 13 5 8 4 9 13 8 3 5 4 3 3 2 3 6 5 12 16 17 20 29 35 39 41
25 24 18 13 15 18 20 9 9 6 5 18 11 23 5 14 10 22 19 11 7 5 5 4 4 4 4 2 3 0 2 2 4 0 2 6 12 16 16 14 24 30 35 39 42
25 21 15 15 17 21 7 12 3 3 3 2 6 7 6 13 10 20 24 8 4 5 5 6 4 13 10 6 5 4 4 3 4 4 2 7 8 5 5 8 14 26 31 35 37
26 22 14 14 16 8 11 11 7 3 2 4 3 3 8 12 5 21 22 9 3 6 4 4 4 12 9 7 6 4 1 3 3 4 3 5 6 6 6 11 6 19 22 19 19
32 27 17 15 15 10 9 7 9 3 5 8 6 8 13 2 20 13 10 4 6 4 5 2 4 6 5 3 4 4 5 5 3 3 3 2 1 8 5 6 5 4 8 13 22
26 13 8 11 3 2 9 9 6 4 4 5 6 6 8 8 4 15 4 7 13 6 5 3 3 3 3 4 2 8 5 6 4 2 2 2 3 6 3 1 7 7 29 23 19
23 13 9 5 7 7 12 7 3 4 3 3 4 11 9 13 6 4 4 4 3 5 3 4 3 2 5 7 6 5 5 2 4 3 4 3 2 9 8 7 4 9 19 22 18
18 15 18 17 12 14 8 3 4 2 4 4 7 15 5 5 8 4 4 3 4 4 3 4 1 3 1 4 5 1 5 4 4 1 4 1 5 6 3 7 5 10 15 23 27
14 19 22 20 15 10 5 3 2 3 5 4 11 6 4 5 4 6 2 4 2 1 5 4 2 1 2 3 5 4 1 2 5 3 3 3 6 9 4 7 9 15 20 27 29
7 11 12 9 6 2 2 3 3 3 6 5 4 3 5 4 4 4 3 3 2 2 2 3 4 2 2 5 5 3 7 3 3 2 3 3 5 4 2 3 4 7 15 22 22
6 4 7 7 2 1 2 3 4 7 11 5 3 5 5 5 7 3 8 1 3 3 3 4 3 1 5 3 6 3 1 4 4 3 3 3 6 6 3 1 6 9 22 21 28
7 2 10 8 3 2 3 3 5 6 4 4 6 8 4 4 3 3 6 3 9 8 5 1 4 3 2 1 1 3 5 5 4 3 2 1 7 3 5 2 10 22 23 27 30
6 6 9 10 3 3 4 4 2 2 2 2 3 2 3 5 5 3 3 1 10 5 6 4 2 3 5 4 3 2 3 4 4 3 5 3 5 1 7 17 25 24 28 28 25
5 3 5 4 1 1 2 2 3 4 2 3 4 5 5 3 4 4 2 4 9 7 7 6 3 4 5 4 3 2 4 6 6 3 3 7 9 17 17 16 22 25 19 18 20
5 1 3 4 4 4 1 4 5 5 4 6 4 5 5 3 3 3 3 3 5 7 4 4 3 2 4 5 3 4 4 7 7 10 5 2 6 18 18 18 21 14 17 19 21
3 3 5 6 9 5 4 6 6 5 5 4 6 7 5 3 1 6 6 2 2 3 3 2 1 2 4 3 6 4 7 8 8 9 12 18 22 23 29 20 13 11 14 18 21
4 2 3 6 5 3 3 3 5 2 11 10 3 4 9 5 2 9 4 7 6 6 3 3 4 2 4 3 4 5 10 11 5 5 9 12 14 12 8 11 11 11 15 16 20
Wind_Direction
317 314 312 311 312 308 305 306 304 290 244 258 355 254 264 261 249 243 234 234 228 186 197 200 203 211 205 207 191 178 120 190 210 169 227 105 42 325 306 276 287 239 240 243 184
313 306 302 298 292 295 301 301 300 294 266 242 288 270 253 260 253 251 244 232 211 176 185 188 196 194 191 198 193 169 164 205 201 195 240 326 27 330 331 317 302 268 220 205 176
313 312 310 305 300 294 289 294 296 295 288 237 246 342 236 242 260 261 249 230 203 179 183 178 181 183 184 182 199 187 197 192 238 231 276 326 322 272 315 306 244 306 201 163 173
319 314 309 306 302 295 295 290 291 293 291 274 243 259 209 206 222 222 209 207 191 185 185 183 179 171 159 186 195 187 211 181 229 257 274 246 300 258 239 252 253 320 258 195 189
315 314 310 306 298 292 289 287 288 298 290 279 247 246 195 198 233 166 199 196 180 189 194 195 187 170 174 181 151 176 238 221 246 262 268 274 251 254 251 266 269 272 278 255 221
319 313 311 310 302 292 296 292 290 287 282 277 259 233 204 222 247 217 193 188 179 189 195 195 195 181 188 197 178 184 203 257 268 268 249 237 237 244 252 268 267 270 265 265 269
320 320 317 315 310 302 296 291 293 290 279 278 243 264 214 220 241 213 207 197 184 191 184 191 188 186 192 133 217 212 151 238 238 233 235 262 267 221 248 262 266 271 268 267 267
322 323 320 316 315 312 302 298 295 295 281 280 259 274 229 230 210 190 175 180 195 198 198 191 176 188 193 160 104 127 86 177 255 173 237 180 258 314 262 244 251 262 270 271 269
324 324 326 324 322 314 313 314 307 292 276 265 263 252 221 232 199 186 172 166 179 199 199 189 193 178 160 136 79 51 164 188 301 223 228 192 318 274 260 246 248 256 258 266 267
325 319 318 317 315 311 315 314 323 271 253 260 236 235 231 215 197 185 186 171 160 170 168 165 180 150 134 164 187 167 176 213 208 205 129 264 266 275 273 272 274 272 271 270 264
326 321 318 311 309 317 316 326 317 313 197 198 232 243 260 191 188 192 180 170 178 171 183 170 159 192 184 180 156 152 154 173 237 247 317 260 259 272 270 274 270 268 267 269 269
331 319 309 303 309 312 315 314 279 292 303 218 258 220 287 166 163 193 179 159 171 172 116 141 206 137 107 151 106 84 105 297 290 126 305 309 293 272 266 252 249 256 260 262 268
322 320 301 302 309 310 278 335 246 289 292 198 231 234 204 167 162 167 178 160 128 155 153 167 138 165 167 173 182 206 165 201 233 317 70 323 282 271 305 271 269 257 263 269 265
316 310 304 303 310 310 268 286 157 211 71 164 241 230 194 147 90 163 167 150 144 143 126 101 132 162 155 170 170 144 184 141 74 39 272 33 294 306 300 303 257 265 254 273 282
311 299 280 288 292 279 321 132 162 187 86 150 170 160 164 167 136 167 169 139 132 124 93 208 134 140 136 175 149 152 111 90 90 82 2 340 110 275 331 313 310 353 28 343 328
342 323 283 301 299 294 128 132 148 50 104 168 140 198 127 148 87 147 162 105 129 76 75 146 122 88 131 61 94 125 73 50 56 72 358 277 139 280 258 313 327 351 338 341 344
23 43 58 58 53 130 130 135 42 108 303 179 184 129 128 140 116 141 94 82 131 120 83 27 9 35 103 76 27 79 77 335 356 14 224 131 114 250 286 295 280 306 355 16 8
42 48 70 78 100 129 111 34 56 327 255 119 120 112 90 113 127 112 88 99 48 96 116 148 135 171 172 144 168 105 141 161 207 210 289 143 228 252 201 313 71 64 33 18 11
57 74 74 77 102 127 8 19 314 335 322 126 95 79 84 57 102 103 62 123 174 75 128 125 31 57 124 121 125 180 107 185 105 46 40 261 286 307 73 35 25 10 359 345 339
7 53 68 79 97 205 36 290 252 221 208 100 72 67 123 129 104 100 145 182 128 110 89 197 87 97 100 101 55 141 153 74 358 124 272 295 274 246 279 325 349 331 320 325 331
349 354 25 6 331 156 79 307 309 327 36 44 129 108 98 114 108 92 177 71 171 144 59 115 84 190 128 184 170 130 196 54 115 130 166 322 270 216 222 299 331 314 323 328 327
348 20 352 3 41 21 346 350 336 325 343 16 70 85 92 99 107 115 185 173 183 142 146 77 117 154 147 2 263 166 172 135 124 224 98 169 271 267 255 324 306 323 325 327 324
354 316 13 12 37 6 336 338 294 281 298 108 100 84 128 123 119 126 195 336 182 142 161 178 20 69 360 349 0 180 178 129 116 92 200 146 259 341 320 330 321 319 328 325 321
358 359 340 11 130 136 322 320 311 231 315 66 105 104 96 69 46 141 119 11 166 161 176 109 113 148 187 205 136 190 190 175 140 129 199 234 291 296 309 307 312 323 326 329 319
18 24 334 316 344 341 254 340 28 24 43 48 52 85 118 106 97 104 93 78 56 129 89 101 131 144 246 230 156 203 200 179 190 207 195 236 277 283 293 297 303 317 323 323 319
62 6 347 287 303 334 335 357 42 15 27 15 75 43 71 106 177 176 129 148 174 59 84 15 168 101 304 289 206 247 221 212 215 231 257 265 278 277 276 285 305 316 330 321 321
70 48 352 296 323 8 334 28 13 29 37 51 111 90 53 6 70 143 163 139 149 135 119 102 123 73 284 338 318 284 227 196 198 203 221 238 246 270 292 314 318 319 328 328 329